Weather History for PAEI - October, 2011

Change the Weather History Date:

Wednesday, October 5, 2011

  Actual Average Record
Temperature  
Mean Temperature 34 °F -  
Max Temperature 48 °F 40 °F 61 °F (1952)
Min Temperature 21 °F 25 °F 1 °F (1970)
Degree Days  
Heating Degree Days 32    
Moisture  
Dew Point 25 °F    
Average Humidity 76    
Maximum Humidity 94    
Minimum Humidity 48    
Precipitation  
Precipitation 0.00 in - - ()
Sea Level Pressure  
Sea Level Pressure 29.50 in    
Wind  
Wind Speed 1 mph (SE)    
Max Wind Speed 8 mph    
Max Gust Speed -    
Visibility 10 miles    
Events      
Averages and records for this station are not official NWS values.
T = Trace of Precipitation, MM = Missing Value Source: NWS Daily Summary

Daily Weather History Graph

Daily Weather History Graph

Search for Another Location

Airport or City:

Trip Planner

Search our weather history database for the weather conditions in past years. The results will help you decide how hot, cold, wet, or windy it might be!

Date:

Astronomy

Oct. 05, 2011 Rise Set
Actual Time 8:09 AM AKDT 7:02 PM AKDT
Civil Twilight 7:21 AM AKDT 7:50 PM AKDT
Nautical Twilight 6:24 AM AKDT 8:47 PM AKDT
Astronomical Twilight 5:23 AM AKDT 9:47 PM AKDT
Moon 5:40 PM AKDT (10/5) No Moon Set
Length of Visible Light 12h 29m
Length of Day
10h 52m
Waxing Gibbous, 67% of the Moon is Illuminated
Oct 5
Waxing Gibbous
Oct 11
Full
Oct 19
Last Quarter
Oct 26
New
Nov 2
First Quarter

Hourly Weather History & Observations

Time (AKDT) Temp. Windchill Dew Point Humidity Pressure Visibility Wind Dir Wind Speed Gust Speed Precip Events Conditions
12:55 AM 24.1 °F - 22.6 °F 94% 29.60 in 10.0 mi Calm Calm - N/A   Clear
1:55 AM 24.3 °F - 22.5 °F 93% 29.61 in 10.0 mi Calm Calm - N/A   Clear
2:55 AM 23.9 °F - 22.1 °F 93% 29.60 in 10.0 mi Calm Calm - N/A   Clear
3:55 AM 22.1 °F - 19.9 °F 91% 29.60 in 10.0 mi Calm Calm - N/A   Clear
4:55 AM 21.9 °F - 20.3 °F 93% 29.59 in 6.0 mi Calm Calm - N/A   Clear
5:55 AM 22.1 °F - 20.1 °F 92% 29.58 in 10.0 mi Calm Calm - N/A   Clear
6:55 AM 23.2 °F - 21.2 °F 92% 29.57 in 10.0 mi Calm Calm - N/A   Clear
7:55 AM 21.9 °F - 19.8 °F 91% 29.56 in 10.0 mi Calm Calm - N/A   Clear
8:55 AM 22.6 °F - 20.1 °F 90% 29.56 in 10.0 mi Calm Calm - N/A   Clear
9:55 AM 26.2 °F - 23.9 °F 91% 29.55 in 10.0 mi Calm Calm - N/A   Clear
10:55 AM 30.6 °F - 27.0 °F 86% 29.55 in 10.0 mi Calm Calm - 0.00 in   Mostly Cloudy
11:55 AM 34.7 °F - 29.7 °F 82% 29.53 in 10.0 mi Calm Calm - N/A   Mostly Cloudy
12:55 PM 38.8 °F - 31.3 °F 74% 29.50 in 10.0 mi Calm Calm - N/A   Overcast
1:55 PM 45.7 °F 43.4 °F 31.5 °F 58% 29.49 in 10.0 mi Variable 4.6 mph - N/A   Scattered Clouds
2:55 PM 46.4 °F 45.2 °F 30.2 °F 53% 29.47 in 10.0 mi Variable 3.5 mph - N/A   Clear
3:55 PM 46.6 °F - 27.9 °F 48% 29.46 in 10.0 mi Variable 6.9 mph - N/A   Clear
4:55 PM 45.9 °F 41.7 °F 27.7 °F 49% 29.44 in 10.0 mi SE 8.1 mph - N/A   Clear
5:55 PM 43.5 °F - 28.6 °F 56% 29.43 in 10.0 mi Calm Calm - N/A   Clear
6:55 PM 39.0 °F - 28.0 °F 65% 29.42 in 10.0 mi Calm Calm - N/A   Partly Cloudy
7:55 PM 34.9 °F - 27.5 °F 74% 29.42 in 10.0 mi Calm Calm - N/A   Partly Cloudy
8:55 PM 37.2 °F 31.9 °F 25.5 °F 63% 29.40 in 10.0 mi Variable 6.9 mph - N/A   Scattered Clouds
9:55 PM 38.5 °F 33.4 °F 25.0 °F 58% 29.40 in 10.0 mi Variable 6.9 mph - N/A   Partly Cloudy
10:55 PM 35.2 °F 31.2 °F 25.2 °F 67% 29.39 in 10.0 mi Variable 4.6 mph - N/A   Overcast
11:55 PM 30.2 °F - 24.8 °F 80% 29.39 in 10.0 mi Calm Calm - N/A   Overcast